Weather in Verkh-Yusva

Russia / Perm Krai     58°50′17″N   54°39′27″E
temp.,
°C
wind,
m/s
gust,
m/s
humid.,
%
clouds,
%
prec.,
mm/h
press.,
hPa
HPBL,
m
24 july, sat
sat2423:00+12ssw23775 0.0 100345
02:00+11s38855 0.0 1003152
05:00+10s3118923 0.0 1002248
08:00+14ssw3877100 0.1 1002391
11:00+16sw478920 1.5 1002856
14:00+15nnw5679100 2.6 1004917
17:00+16nw4661100 2.8 10061433
20:00+15nw3763100 0.1 1008666
25 july, sun
sun2523:00+10wnw257396 0.1 101097
02:00+7nw39775 0.0 1012178
05:00+5nw26785 0.0 1014116
08:00+10nw35635 0.0 1016288
11:00+15nw35465 0.0 10161532
14:00+16nw4543100 0.0 10172363
17:00+15wnw365048 0.0 10181699
20:00+14w3758100 0.0 1018510
26 july, mon
mon2623:00+10w2675100 0.0 1019132
02:00+11w2669100 0.0 1019160
05:00+10w2571100 0.0 1019134
08:00+12wsw2672100 0.0 1020235
11:00+17wnw354720 0.0 10191407
14:00+17w375360 0.0 1018816
17:00+16w386593 0.0 1017598
20:00+15w5118448 0.4 1016516
27 july, tue
tue2723:00+13w3996100 1.8 1015442
02:00+12wsw3998100 0.4 1014278
05:00+13w3109893 1.3 1013574
08:00+12nnw489530 0.3 1014632
11:00+12nw4681100 0.4 1015846
14:00+14nw5667100 0.1 10151195
17:00+16nnw375196 0.1 10151711
20:00+14nne2267100 0.0 101456
28 july, wed
wed2823:00+12nnw256787 0.0 1015164
02:00+7nw238453 0.0 101649
05:00+6w24895 0.0 101671
08:00+11w37655 0.0 1016276
11:00+17w464749 0.0 10141383
14:00+20wsw5839100 0.0 10112007
17:00+21wsw51145100 0.0 10082151
20:00+17sw7157498 0.1 1005914